Location: ??????
(41.3164°N, 22.6615°E)
Time: 13:32:34
(UTC+00:00)

CAS-4A - Pass Details

Date: 07 July 2022
Orbit: 521 x 537 km, 43.0° (Epoch: 13 August)

Event Time Altitude Azimuth Distance (km) Brightness Sun altitude
Exits shadow 22:59:17 21° 75° (ENE) 1,210 ? -25.9°
Drops below altitude 10° 23:00:41 10° 77° (ENE) 1,755 ? -25.9°
Sets 23:02:55 0° 78° (ENE) 2,646 ? -25.8°
